Location: Sobotiste
(48.7170°N, 17.4000°E)
Time: 08:31:48
(UTC+02:00)

YUBILEINY - Pass Details

Date: 14 March 2026
Orbit: 1477 x 1509 km, 82.5° (Epoch: 13 April)

Event Time Altitude Azimuth Distance (km) Brightness Sun altitude
Rises 04:44:42 0° 345° (NNW) 4,623 ? -14.2°
Reaches altitude 10° 04:47:57 10° 336° (NNW) 3,635 ? -13.7°
Maximum altitude 04:55:17 32° 278° (W) 2,328 ? -12.5°
Drops below altitude 10° 05:02:35 10° 220° (SW) 3,608 ? -11.3°
Sets 05:05:49 0° 211° (SSW) 4,584 ? -10.8°
